Time,TemperatureF,DewpointF,PressureIn,WindDirection,WindDirectionDegrees,WindSpeedMPH,WindSpeedGustMPH,Humidity,HourlyPrecipIn,Conditions,Clouds,dailyrainin,SoftwareType,DateUTC
2013-03-02 00:16:00,45.3,42.0,29.82,SE,135,0.0,0.7,88,0.00,,,0.00,pywws,2013-03-02 08:16:00,
2013-03-02 00:46:00,45.1,42.7,29.82,West,270,0.7,1.6,91,0.00,,,0.00,pywws,2013-03-02 08:46:00,
2013-03-02 01:16:00,44.8,42.3,29.81,North,0,0.7,1.6,91,0.00,,,0.00,pywws,2013-03-02 09:16:00,
2013-03-02 01:46:00,43.9,41.4,29.81,SE,135,0.7,1.6,91,0.00,,,0.00,pywws,2013-03-02 09:46:00,
2013-03-02 02:16:00,44.2,40.6,29.80,NW,315,0.0,0.0,87,0.00,,,0.00,pywws,2013-03-02 10:16:00,
2013-03-02 02:46:00,44.6,42.1,29.79,West,270,0.7,1.6,91,0.00,,,0.00,pywws,2013-03-02 10:46:00,
2013-03-02 03:16:00,44.6,42.4,29.78,West,270,1.6,2.2,92,0.00,,,0.00,pywws,2013-03-02 11:16:00,
2013-03-02 03:46:00,44.8,42.9,29.78,West,270,0.7,1.6,93,0.00,,,0.00,pywws,2013-03-02 11:46:00,
2013-03-02 04:16:00,45.3,43.7,29.78,West,270,0.7,2.2,94,0.00,,,0.00,pywws,2013-03-02 12:16:00,
2013-03-02 04:46:00,44.2,42.6,29.77,West,270,0.7,0.7,94,0.00,,,0.00,pywws,2013-03-02 12:46:00,
2013-03-02 05:16:00,44.2,42.6,29.78,West,270,0.0,0.7,94,0.00,,,0.00,pywws,2013-03-02 13:16:00,
2013-03-02 05:46:00,44.4,43.1,29.78,NW,315,0.0,0.7,95,0.00,,,0.00,pywws,2013-03-02 13:46:00,
2013-03-02 06:16:00,44.4,43.1,29.77,NW,315,0.0,1.6,95,0.00,,,0.00,pywws,2013-03-02 14:16:00,
2013-03-02 06:46:00,46.8,45.4,29.77,NW,315,0.0,0.7,95,0.00,,,0.00,pywws,2013-03-02 14:46:00,
2013-03-02 07:16:00,49.5,46.7,29.78,North,0,0.7,2.2,90,0.00,,,0.00,pywws,2013-03-02 15:16:00,
2013-03-02 07:46:00,50.9,46.9,29.78,NW,315,0.7,2.2,86,0.00,,,0.00,pywws,2013-03-02 15:46:00,
2013-03-02 08:16:00,54.1,48.4,29.79,NE,45,3.8,5.4,81,0.00,,,0.00,pywws,2013-03-02 16:16:00,
2013-03-02 08:46:00,58.5,50.9,29.79,North,0,5.4,6.0,76,0.00,,,0.00,pywws,2013-03-02 16:46:00,
2013-03-02 09:16:00,59.4,51.1,29.78,North,0,3.1,6.0,74,0.00,,,0.00,pywws,2013-03-02 17:16:00,
2013-03-02 09:46:00,63.5,50.7,29.78,North,0,3.8,6.0,63,0.00,,,0.00,pywws,2013-03-02 17:46:00,
2013-03-02 10:16:00,64.4,52.4,29.78,NNW,338,3.8,5.4,65,0.00,,,0.00,pywws,2013-03-02 18:16:00,
2013-03-02 10:46:00,67.1,53.6,29.78,North,0,3.1,4.5,62,0.00,,,0.00,pywws,2013-03-02 18:46:00,
2013-03-02 11:16:00,65.5,53.0,29.77,North,0,4.5,6.9,64,0.00,,,0.00,pywws,2013-03-02 19:16:00,
2013-03-02 11:46:00,68.0,54.0,29.76,North,0,4.5,6.0,61,0.00,,,0.00,pywws,2013-03-02 19:46:00,
2013-03-02 12:16:00,71.8,52.7,29.75,North,0,0.0,1.6,51,0.00,,,0.00,pywws,2013-03-02 20:16:00,
2013-03-02 12:46:00,72.5,53.3,29.73,East,90,1.6,3.8,51,0.00,,,0.00,pywws,2013-03-02 20:46:00,
2013-03-02 13:16:00,72.1,51.9,29.71,North,0,3.1,5.4,49,0.00,,,0.00,pywws,2013-03-02 21:16:00,
2013-03-02 13:46:00,73.4,52.5,29.70,NE,45,2.2,3.8,48,0.00,,,0.00,pywws,2013-03-02 21:46:00,
2013-03-02 14:16:00,71.4,52.9,29.70,SW,225,2.2,3.8,52,0.00,,,0.00,pywws,2013-03-02 22:16:00,
2013-03-02 14:46:00,70.5,52.0,29.68,NNW,338,1.6,3.1,52,0.00,,,0.00,pywws,2013-03-02 22:46:00,
2013-03-02 15:16:00,70.7,52.2,29.67,NW,315,0.7,1.6,52,0.00,,,0.00,pywws,2013-03-02 23:16:00,
2013-03-02 15:46:00,69.6,53.7,29.66,NW,315,1.6,2.2,57,0.00,,,0.00,pywws,2013-03-02 23:46:00,
2013-03-02 16:16:00,68.9,53.0,29.65,NW,315,0.7,2.2,57,0.00,,,0.00,pywws,2013-03-03 00:16:00,
2013-03-02 16:46:00,67.5,54.0,29.66,West,270,1.6,2.2,62,0.00,,,0.00,pywws,2013-03-03 00:46:00,
2013-03-02 17:16:00,66.0,53.9,29.64,North,0,0.0,0.7,65,0.00,,,0.00,pywws,2013-03-03 01:16:00,
2013-03-02 17:46:00,63.9,53.1,29.64,NW,315,0.7,1.6,68,0.00,,,0.00,pywws,2013-03-03 01:46:00,
2013-03-02 18:16:00,63.0,52.2,29.64,NNW,338,1.6,2.2,68,0.00,,,0.00,pywws,2013-03-03 02:16:00,
2013-03-02 18:46:00,61.9,52.4,29.64,NW,315,0.7,1.6,71,0.00,,,0.00,pywws,2013-03-03 02:46:00,
2013-03-02 19:16:00,59.7,52.8,29.65,SE,135,0.7,1.6,78,0.00,,,0.00,pywws,2013-03-03 03:16:00,
2013-03-02 19:46:00,59.7,51.8,29.64,SW,225,1.6,2.2,75,0.00,,,0.00,pywws,2013-03-03 03:46:00,
2013-03-02 20:16:00,59.0,52.1,29.64,West,270,0.7,1.6,78,0.00,,,0.00,pywws,2013-03-03 04:16:00,
2013-03-02 20:46:00,59.0,52.1,29.64,SW,225,0.0,0.7,78,0.00,,,0.00,pywws,2013-03-03 04:46:00,
2013-03-02 21:16:00,59.7,52.5,29.65,SW,225,0.0,0.0,77,0.00,,,0.00,pywws,2013-03-03 05:16:00,
2013-03-02 21:46:00,59.5,53.0,29.63,NW,315,0.7,2.2,79,0.00,,,0.00,pywws,2013-03-03 05:46:00,
2013-03-02 22:16:00,60.3,53.4,29.63,South,180,0.7,2.2,78,0.00,,,0.00,pywws,2013-03-03 06:16:00,
2013-03-02 22:46:00,59.5,53.0,29.63,South,180,2.2,3.8,79,0.00,,,0.00,pywws,2013-03-03 06:46:00,
2013-03-02 23:16:00,57.9,52.8,29.63,SW,225,1.6,2.2,83,0.00,,,0.00,pywws,2013-03-03 07:16:00,
2013-03-02 23:46:00,57.9,53.1,29.62,West,270,1.6,3.1,84,0.00,,,0.00,pywws,2013-03-03 07:46:00,